Year,Month,Day,Hour,Minute,Value (Times are PST for temperature in C)
2015,07,01,00,00,18.60
2015,07,01,00,01,18.60
2015,07,01,00,02,18.60
2015,07,01,00,03,18.60
2015,07,01,00,04,18.60
2015,07,01,00,05,18.60
2015,07,01,00,06,18.60
2015,07,01,00,07,18.60
2015,07,01,00,08,18.60
2015,07,01,00,09,18.60
2015,07,01,00,10,18.50
2015,07,01,00,11,18.50
2015,07,01,00,12,18.50
2015,07,01,00,13,18.40
2015,07,01,00,14,18.40
2015,07,01,00,15,18.40
2015,07,01,00,16,18.40
2015,07,01,00,17,18.40
2015,07,01,00,18,18.40
2015,07,01,00,19,18.40
2015,07,01,00,20,18.30
2015,07,01,00,21,18.30
2015,07,01,00,22,18.30
2015,07,01,00,23,18.30
2015,07,01,00,24,18.30
2015,07,01,00,25,18.30
2015,07,01,00,26,18.20
2015,07,01,00,27,18.20
2015,07,01,00,28,18.20
2015,07,01,00,29,18.20
2015,07,01,00,30,18.20
2015,07,01,00,31,18.20
2015,07,01,00,32,18.10
2015,07,01,00,33,18.10
2015,07,01,00,34,18.10
2015,07,01,00,35,18.10
2015,07,01,00,36,18.10
2015,07,01,00,37,18.10
2015,07,01,00,38,18.10
2015,07,01,00,39,18.00
2015,07,01,00,40,18.00
2015,07,01,00,41,17.90
2015,07,01,00,42,17.90
2015,07,01,00,43,17.90
2015,07,01,00,44,17.80
2015,07,01,00,45,17.80
2015,07,01,00,46,17.80
2015,07,01,00,47,17.80
2015,07,01,00,48,17.80
2015,07,01,00,49,17.80
2015,07,01,00,50,17.80
2015,07,01,00,51,17.80
2015,07,01,00,52,17.80
2015,07,01,00,53,17.80
2015,07,01,00,54,17.70
2015,07,01,00,55,17.70
2015,07,01,00,56,17.70
2015,07,01,00,57,17.70
2015,07,01,00,58,17.70
2015,07,01,00,59,17.70
2015,07,01,01,00,17.60
2015,07,01,01,01,17.60
2015,07,01,01,02,17.60
2015,07,01,01,03,17.60
2015,07,01,01,04,17.60
2015,07,01,01,05,17.60
2015,07,01,01,06,17.50
2015,07,01,01,07,17.50
2015,07,01,01,08,17.50
2015,07,01,01,09,17.50
2015,07,01,01,10,17.40
2015,07,01,01,11,17.40
2015,07,01,01,12,17.40
2015,07,01,01,13,17.40
2015,07,01,01,14,17.40
2015,07,01,01,15,17.40
2015,07,01,01,16,17.30
2015,07,01,01,17,17.30
2015,07,01,01,18,17.30
2015,07,01,01,19,17.30
2015,07,01,01,20,17.30
2015,07,01,01,21,17.30
2015,07,01,01,22,17.30
2015,07,01,01,23,17.30
2015,07,01,01,24,17.30
2015,07,01,01,25,17.30
2015,07,01,01,26,17.30
2015,07,01,01,27,17.30
2015,07,01,01,28,17.30
2015,07,01,01,29,17.20
2015,07,01,01,30,17.20
2015,07,01,01,31,17.20
2015,07,01,01,32,17.20
2015,07,01,01,33,17.20
2015,07,01,01,34,17.10
2015,07,01,01,35,17.10
2015,07,01,01,36,17.10
2015,07,01,01,37,17.10
2015,07,01,01,38,17.10
2015,07,01,01,39,17.10
2015,07,01,01,40,17.10
2015,07,01,01,41,17.10
2015,07,01,01,42,17.10
2015,07,01,01,43,17.10
2015,07,01,01,44,17.00
2015,07,01,01,45,17.00
2015,07,01,01,46,17.00
2015,07,01,01,47,17.00
2015,07,01,01,48,17.00
2015,07,01,01,49,16.90
2015,07,01,01,50,16.90
2015,07,01,01,51,16.90
2015,07,01,01,52,16.90
2015,07,01,01,53,16.90
2015,07,01,01,54,16.90
2015,07,01,01,55,16.90
2015,07,01,01,56,16.90
2015,07,01,01,57,16.90
2015,07,01,01,58,16.80
2015,07,01,01,59,16.80
2015,07,01,02,00,16.80
2015,07,01,02,01,16.80
2015,07,01,02,02,16.80
2015,07,01,02,03,16.80
2015,07,01,02,04,16.80
2015,07,01,02,05,16.70
2015,07,01,02,06,16.70
2015,07,01,02,07,16.70
2015,07,01,02,08,16.70
2015,07,01,02,09,16.70
2015,07,01,02,10,16.70
2015,07,01,02,11,16.70
2015,07,01,02,12,16.70
2015,07,01,02,13,16.70
2015,07,01,02,14,16.70
2015,07,01,02,15,16.70
2015,07,01,02,16,16.70
2015,07,01,02,17,16.60
2015,07,01,02,18,16.60
2015,07,01,02,19,16.60
2015,07,01,02,20,16.60
2015,07,01,02,21,16.60
2015,07,01,02,22,16.60
2015,07,01,02,23,16.60
2015,07,01,02,24,16.60
2015,07,01,02,25,16.60
2015,07,01,02,26,16.60
2015,07,01,02,27,16.50
2015,07,01,02,28,16.50
2015,07,01,02,29,16.40
2015,07,01,02,30,16.40
2015,07,01,02,31,16.40
2015,07,01,02,32,16.40
2015,07,01,02,33,16.30
2015,07,01,02,34,16.30
2015,07,01,02,35,16.30
2015,07,01,02,36,16.30
2015,07,01,02,37,16.30
2015,07,01,02,38,16.30
2015,07,01,02,39,16.30
2015,07,01,02,40,16.30
2015,07,01,02,41,16.30
2015,07,01,02,42,16.20
2015,07,01,02,43,16.20
2015,07,01,02,44,16.20
2015,07,01,02,45,16.20
2015,07,01,02,46,16.20
2015,07,01,02,47,16.10
2015,07,01,02,48,16.10
2015,07,01,02,49,16.10
2015,07,01,02,50,16.10
2015,07,01,02,51,16.10
2015,07,01,02,52,16.10
2015,07,01,02,53,16.10
2015,07,01,02,54,16.10
2015,07,01,02,55,16.10
2015,07,01,02,56,16.10
2015,07,01,02,57,16.00
2015,07,01,02,58,16.00
2015,07,01,02,59,16.00
2015,07,01,03,00,16.00
2015,07,01,03,01,16.00
2015,07,01,03,02,15.90
2015,07,01,03,03,15.90
2015,07,01,03,04,15.90
2015,07,01,03,05,15.90
2015,07,01,03,06,15.90
2015,07,01,03,07,15.90
2015,07,01,03,08,15.90
2015,07,01,03,09,15.90
2015,07,01,03,10,15.90
2015,07,01,03,11,15.90
2015,07,01,03,12,15.90
2015,07,01,03,13,15.80
2015,07,01,03,14,15.80
2015,07,01,03,15,15.80
2015,07,01,03,16,15.80
2015,07,01,03,17,15.80
2015,07,01,03,18,15.80
2015,07,01,03,19,15.80
2015,07,01,03,20,15.80
2015,07,01,03,21,15.70
2015,07,01,03,22,15.70
2015,07,01,03,23,15.70
2015,07,01,03,24,15.70
2015,07,01,03,25,15.70
2015,07,01,03,26,15.60
2015,07,01,03,27,15.60
2015,07,01,03,28,15.60
2015,07,01,03,29,15.60
2015,07,01,03,30,15.60
2015,07,01,03,31,15.60
2015,07,01,03,32,15.60
2015,07,01,03,33,15.60
2015,07,01,03,34,15.60
2015,07,01,03,35,15.60
2015,07,01,03,36,15.50
2015,07,01,03,37,15.50
2015,07,01,03,38,15.50
2015,07,01,03,39,15.40
2015,07,01,03,40,15.40
2015,07,01,03,41,15.40
2015,07,01,03,42,15.40
2015,07,01,03,43,15.30
2015,07,01,03,44,15.30
2015,07,01,03,45,15.20
2015,07,01,03,46,15.20
2015,07,01,03,47,15.20
2015,07,01,03,48,15.20
2015,07,01,03,49,15.10
2015,07,01,03,50,15.10
2015,07,01,03,51,15.10
2015,07,01,03,52,15.00
2015,07,01,03,53,15.00
2015,07,01,03,54,14.90
2015,07,01,03,55,14.90
2015,07,01,03,56,14.90
2015,07,01,03,57,14.80
2015,07,01,03,58,14.80
2015,07,01,03,59,14.80
2015,07,01,04,00,14.70
2015,07,01,04,01,14.70
2015,07,01,04,02,14.70
2015,07,01,04,03,14.70
2015,07,01,04,04,14.70
2015,07,01,04,05,14.70
2015,07,01,04,06,14.70
2015,07,01,04,07,14.70
2015,07,01,04,08,14.70
2015,07,01,04,09,14.70
2015,07,01,04,10,14.70
2015,07,01,04,11,14.70
2015,07,01,04,12,14.60
2015,07,01,04,13,14.60
2015,07,01,04,14,14.60
2015,07,01,04,15,14.60
2015,07,01,04,16,14.60
2015,07,01,04,17,14.60
2015,07,01,04,18,14.60
2015,07,01,04,19,14.50
2015,07,01,04,20,14.50
2015,07,01,04,21,14.50
2015,07,01,04,22,14.40
2015,07,01,04,23,14.40
2015,07,01,04,24,14.40
2015,07,01,04,25,14.40
2015,07,01,04,26,14.30
2015,07,01,04,27,14.30
2015,07,01,04,28,14.20
2015,07,01,04,29,14.20
2015,07,01,04,30,14.10
2015,07,01,04,31,14.00
2015,07,01,04,32,13.90
2015,07,01,04,33,13.90
2015,07,01,04,34,13.80
2015,07,01,04,35,13.80
2015,07,01,04,36,13.70
2015,07,01,04,37,13.70
2015,07,01,04,38,13.70
2015,07,01,04,39,13.60
2015,07,01,04,40,13.60
2015,07,01,04,41,13.60
2015,07,01,04,42,13.50
2015,07,01,04,43,13.50
2015,07,01,04,44,13.50
2015,07,01,04,45,13.40
2015,07,01,04,46,13.40
2015,07,01,04,47,13.40
2015,07,01,04,48,13.30
2015,07,01,04,49,13.30
2015,07,01,04,50,13.30
2015,07,01,04,51,13.30
2015,07,01,04,52,13.20
2015,07,01,04,53,13.20
2015,07,01,04,54,13.20
2015,07,01,04,55,13.20
2015,07,01,04,56,13.20
2015,07,01,04,57,13.10
2015,07,01,04,58,13.10
2015,07,01,04,59,13.10
2015,07,01,05,00,13.10
2015,07,01,05,01,13.10
2015,07,01,05,02,13.00
2015,07,01,05,03,13.00
2015,07,01,05,04,12.90
2015,07,01,05,05,12.90
2015,07,01,05,06,12.90
2015,07,01,05,07,12.90
2015,07,01,05,08,12.90
2015,07,01,05,09,12.80
2015,07,01,05,10,12.80
2015,07,01,05,11,12.80
2015,07,01,05,12,12.80
2015,07,01,05,13,12.80
2015,07,01,05,14,12.80
2015,07,01,05,15,12.80
2015,07,01,05,16,12.70
2015,07,01,05,17,12.70
2015,07,01,05,18,12.70
2015,07,01,05,19,12.70
2015,07,01,05,20,12.70
2015,07,01,05,21,12.70
2015,07,01,05,22,12.70
2015,07,01,05,23,12.70
2015,07,01,05,24,12.70
2015,07,01,05,25,12.60
2015,07,01,05,26,12.60
2015,07,01,05,27,12.60
2015,07,01,05,28,12.60
2015,07,01,05,29,12.60
2015,07,01,05,30,12.60
2015,07,01,05,31,12.50
2015,07,01,05,32,12.50
2015,07,01,05,33,12.50
2015,07,01,05,34,12.40
2015,07,01,05,35,12.40
2015,07,01,05,36,12.40
2015,07,01,05,37,12.40
2015,07,01,05,38,12.40
2015,07,01,05,39,12.40
2015,07,01,05,40,12.40
2015,07,01,05,41,12.40
2015,07,01,05,42,12.30
2015,07,01,05,43,12.30
2015,07,01,05,44,12.30
2015,07,01,05,45,12.30
2015,07,01,05,46,12.30
2015,07,01,05,47,12.30
2015,07,01,05,48,12.30
2015,07,01,05,49,12.30
2015,07,01,05,50,12.20
2015,07,01,05,51,12.20
2015,07,01,05,52,12.20
2015,07,01,05,53,12.20
2015,07,01,05,54,12.20
2015,07,01,05,55,12.20
2015,07,01,05,56,12.20
2015,07,01,05,57,12.10
2015,07,01,05,58,12.10
2015,07,01,05,59,12.10
2015,07,01,06,00,12.10
2015,07,01,06,01,12.10
2015,07,01,06,02,12.10
2015,07,01,06,03,12.10
2015,07,01,06,04,12.10
2015,07,01,06,05,12.10
2015,07,01,06,06,12.10
2015,07,01,06,07,12.00
2015,07,01,06,08,12.00
2015,07,01,06,09,12.00
2015,07,01,06,10,12.00
2015,07,01,06,11,12.00
2015,07,01,06,12,12.00
2015,07,01,06,13,12.00
2015,07,01,06,14,12.00
2015,07,01,06,15,11.90
2015,07,01,06,16,11.90
2015,07,01,06,17,11.90
2015,07,01,06,18,11.90
2015,07,01,06,19,11.90
2015,07,01,06,20,11.90
2015,07,01,06,21,11.90
2015,07,01,06,22,11.90
2015,07,01,06,23,11.90
2015,07,01,06,24,11.90
2015,07,01,06,25,11.90
2015,07,01,06,26,11.90
2015,07,01,06,27,11.90
2015,07,01,06,28,11.90
2015,07,01,06,29,11.90
2015,07,01,06,30,11.90
2015,07,01,06,31,11.90
2015,07,01,06,32,11.90
2015,07,01,06,33,11.90
2015,07,01,06,34,11.90
2015,07,01,06,35,11.90
2015,07,01,06,36,11.90
2015,07,01,06,37,11.90
2015,07,01,06,38,11.90
2015,07,01,06,39,11.90
2015,07,01,06,40,11.90
2015,07,01,06,41,11.90
2015,07,01,06,42,11.90
2015,07,01,06,43,11.90
2015,07,01,06,44,12.00
2015,07,01,06,45,12.00
2015,07,01,06,46,12.00
2015,07,01,06,47,12.00
2015,07,01,06,48,12.00
2015,07,01,06,49,12.10
2015,07,01,06,50,12.10
2015,07,01,06,51,12.10
2015,07,01,06,52,12.20
2015,07,01,06,53,12.20
2015,07,01,06,54,12.30
2015,07,01,06,55,12.40
2015,07,01,06,56,12.40
2015,07,01,06,57,12.50
2015,07,01,06,58,12.60
2015,07,01,06,59,12.60
2015,07,01,07,00,12.70
2015,07,01,07,01,12.70
2015,07,01,07,02,12.80
2015,07,01,07,03,12.80
2015,07,01,07,04,12.80
2015,07,01,07,05,12.80
2015,07,01,07,06,12.90
2015,07,01,07,07,13.00
2015,07,01,07,08,13.00
2015,07,01,07,09,13.10
2015,07,01,07,10,13.20
2015,07,01,07,11,13.20
2015,07,01,07,12,13.30
2015,07,01,07,13,13.30
2015,07,01,07,14,13.40
2015,07,01,07,15,13.50
2015,07,01,07,16,13.50
2015,07,01,07,17,13.60
2015,07,01,07,18,13.70
2015,07,01,07,19,13.70
2015,07,01,07,20,13.80
2015,07,01,07,21,13.80
2015,07,01,07,22,13.80
2015,07,01,07,23,13.80
2015,07,01,07,24,13.80
2015,07,01,07,25,13.90
2015,07,01,07,26,13.90
2015,07,01,07,27,13.90
2015,07,01,07,28,14.00
2015,07,01,07,29,14.00
2015,07,01,07,30,14.10
2015,07,01,07,31,14.10
2015,07,01,07,32,14.10
2015,07,01,07,33,14.20
2015,07,01,07,34,14.20
2015,07,01,07,35,14.30
2015,07,01,07,36,14.40
2015,07,01,07,37,14.40
2015,07,01,07,38,14.50
2015,07,01,07,39,14.60
2015,07,01,07,40,14.70
2015,07,01,07,41,14.80
2015,07,01,07,42,14.80
2015,07,01,07,43,14.90
2015,07,01,07,44,15.10
2015,07,01,07,45,15.10
2015,07,01,07,46,15.20
2015,07,01,07,47,15.30
2015,07,01,07,48,15.40
2015,07,01,07,49,15.50
2015,07,01,07,50,15.50
2015,07,01,07,51,15.60
2015,07,01,07,52,15.70
2015,07,01,07,53,15.80
2015,07,01,07,54,15.90
2015,07,01,07,55,16.00
2015,07,01,07,56,16.10
2015,07,01,07,57,16.10
2015,07,01,07,58,16.20
2015,07,01,07,59,16.10
2015,07,01,08,00,16.10
2015,07,01,08,01,16.10
2015,07,01,08,02,16.00
2015,07,01,08,03,16.00
2015,07,01,08,04,16.00
2015,07,01,08,05,16.00
2015,07,01,08,06,16.10
2015,07,01,08,07,16.10
2015,07,01,08,08,16.10
2015,07,01,08,09,16.20
2015,07,01,08,10,16.20
2015,07,01,08,11,16.20
2015,07,01,08,12,16.30
2015,07,01,08,13,16.30
2015,07,01,08,14,16.40
2015,07,01,08,15,16.50
2015,07,01,08,16,16.50
2015,07,01,08,17,16.60
2015,07,01,08,18,16.70
2015,07,01,08,19,16.70
2015,07,01,08,20,16.70
2015,07,01,08,21,16.80
2015,07,01,08,22,16.80
2015,07,01,08,23,16.80
2015,07,01,08,24,16.80
2015,07,01,08,25,16.80
2015,07,01,08,26,16.80
2015,07,01,08,27,16.80
2015,07,01,08,28,16.90
2015,07,01,08,29,16.90
2015,07,01,08,30,16.90
2015,07,01,08,31,16.90
2015,07,01,08,32,16.90
2015,07,01,08,33,17.00
2015,07,01,08,34,17.00
2015,07,01,08,35,17.00
2015,07,01,08,36,17.10
2015,07,01,08,37,17.10
2015,07,01,08,38,17.10
2015,07,01,08,39,17.20
2015,07,01,08,40,17.20
2015,07,01,08,41,17.20
2015,07,01,08,42,17.30
2015,07,01,08,43,17.30
2015,07,01,08,44,17.30
2015,07,01,08,45,17.30
2015,07,01,08,46,17.20
2015,07,01,08,47,17.20
2015,07,01,08,48,17.20
2015,07,01,08,49,17.20
2015,07,01,08,50,17.20
2015,07,01,08,51,17.10
2015,07,01,08,52,17.10
2015,07,01,08,53,17.10
2015,07,01,08,54,17.10
2015,07,01,08,55,17.10
2015,07,01,08,56,17.10
2015,07,01,08,57,17.20
2015,07,01,08,58,17.20
2015,07,01,08,59,17.30
2015,07,01,09,00,17.40
2015,07,01,09,01,17.40
2015,07,01,09,02,17.40
2015,07,01,09,03,17.40
2015,07,01,09,04,17.50
2015,07,01,09,05,17.50
2015,07,01,09,06,17.60
2015,07,01,09,07,17.60
2015,07,01,09,08,17.70
2015,07,01,09,09,17.70
2015,07,01,09,10,17.70
2015,07,01,09,11,17.80
2015,07,01,09,12,17.80
2015,07,01,09,13,17.90
2015,07,01,09,14,17.90
2015,07,01,09,15,17.90
2015,07,01,09,16,18.00
2015,07,01,09,17,18.10
2015,07,01,09,18,18.20
2015,07,01,09,19,18.20
2015,07,01,09,20,18.20
2015,07,01,09,21,18.20
2015,07,01,09,22,18.20
2015,07,01,09,23,18.20
2015,07,01,09,24,18.20
2015,07,01,09,25,18.20
2015,07,01,09,26,18.30
2015,07,01,09,27,18.40
2015,07,01,09,28,18.40
2015,07,01,09,29,18.50
2015,07,01,09,30,18.60
2015,07,01,09,31,18.70
2015,07,01,09,32,18.70
2015,07,01,09,33,18.70
2015,07,01,09,34,18.70
2015,07,01,09,35,18.70
2015,07,01,09,36,18.80
2015,07,01,09,37,18.80
2015,07,01,09,38,18.80
2015,07,01,09,39,18.70
2015,07,01,09,40,18.70
2015,07,01,09,41,18.80
2015,07,01,09,42,18.80
2015,07,01,09,43,18.80
2015,07,01,09,44,18.80
2015,07,01,09,45,18.80
2015,07,01,09,46,18.90
2015,07,01,09,47,18.90
2015,07,01,09,48,19.00
2015,07,01,09,49,19.00
2015,07,01,09,50,19.00
2015,07,01,09,51,19.10
2015,07,01,09,52,19.10
2015,07,01,09,53,19.20
2015,07,01,09,54,19.20
2015,07,01,09,55,19.30
2015,07,01,09,56,19.30
2015,07,01,09,57,19.40
2015,07,01,09,58,19.50
2015,07,01,09,59,19.70
2015,07,01,10,00,19.80
2015,07,01,10,01,19.90
2015,07,01,10,02,20.10
2015,07,01,10,03,20.20
2015,07,01,10,04,20.30
2015,07,01,10,05,20.30
2015,07,01,10,06,20.40
2015,07,01,10,07,20.40
2015,07,01,10,08,20.40
2015,07,01,10,09,20.40
2015,07,01,10,10,20.40
2015,07,01,10,11,20.50
2015,07,01,10,12,20.50
2015,07,01,10,13,20.50
2015,07,01,10,14,20.50
2015,07,01,10,15,20.60
2015,07,01,10,16,20.70
2015,07,01,10,17,20.80
2015,07,01,10,18,20.80
2015,07,01,10,19,20.80
2015,07,01,10,20,20.80
2015,07,01,10,21,20.80
2015,07,01,10,22,20.80
2015,07,01,10,23,20.80
2015,07,01,10,24,20.80
2015,07,01,10,25,20.80
2015,07,01,10,26,20.80
2015,07,01,10,27,20.80
2015,07,01,10,28,20.80
2015,07,01,10,29,20.90
2015,07,01,10,30,20.90
2015,07,01,10,31,20.90
2015,07,01,10,32,20.90
2015,07,01,10,33,21.00
2015,07,01,10,34,21.00
2015,07,01,10,35,21.00
2015,07,01,10,36,21.10
2015,07,01,10,37,21.20
2015,07,01,10,38,21.20
2015,07,01,10,39,21.30
2015,07,01,10,40,21.30
2015,07,01,10,41,21.40
2015,07,01,10,42,21.40
2015,07,01,10,43,21.40
2015,07,01,10,44,21.50
2015,07,01,10,45,21.60
2015,07,01,10,46,21.70
2015,07,01,10,47,21.80
2015,07,01,10,48,22.00
2015,07,01,10,49,22.10
2015,07,01,10,50,22.20
2015,07,01,10,51,22.30
2015,07,01,10,52,22.30
2015,07,01,10,53,22.30
2015,07,01,10,54,22.30
2015,07,01,10,55,22.30
2015,07,01,10,56,22.20
2015,07,01,10,57,22.20
2015,07,01,10,58,22.20
2015,07,01,10,59,22.30
2015,07,01,11,00,22.40
2015,07,01,11,01,22.50
2015,07,01,11,02,22.60
2015,07,01,11,03,22.70
2015,07,01,11,04,22.70
2015,07,01,11,05,22.80
2015,07,01,11,06,22.80
2015,07,01,11,07,22.90
2015,07,01,11,08,23.10
2015,07,01,11,09,23.20
2015,07,01,11,10,23.30
2015,07,01,11,11,23.30
2015,07,01,11,12,23.30
2015,07,01,11,13,23.30
2015,07,01,11,14,23.30
2015,07,01,11,15,23.30
2015,07,01,11,16,23.20
2015,07,01,11,17,23.20
2015,07,01,11,18,23.20
2015,07,01,11,19,23.20
2015,07,01,11,20,23.20
2015,07,01,11,21,23.30
2015,07,01,11,22,23.40
2015,07,01,11,23,23.50
2015,07,01,11,24,23.60
2015,07,01,11,25,23.70
2015,07,01,11,26,23.80
2015,07,01,11,27,23.90
2015,07,01,11,28,24.10
2015,07,01,11,29,24.20
2015,07,01,11,30,24.20
2015,07,01,11,31,24.30
2015,07,01,11,32,24.30
2015,07,01,11,33,24.40
2015,07,01,11,34,24.40
2015,07,01,11,35,24.40
2015,07,01,11,36,24.50
2015,07,01,11,37,24.60
2015,07,01,11,38,24.70
2015,07,01,11,39,24.90
2015,07,01,11,40,24.90
2015,07,01,11,41,24.90
2015,07,01,11,42,24.90
2015,07,01,11,43,24.90
2015,07,01,11,44,24.90
2015,07,01,11,45,24.90
2015,07,01,11,46,24.80
2015,07,01,11,47,24.80
2015,07,01,11,48,24.80
2015,07,01,11,49,24.80
2015,07,01,11,50,24.80
2015,07,01,11,51,24.90
2015,07,01,11,52,25.00
2015,07,01,11,53,25.00
2015,07,01,11,54,25.00
2015,07,01,11,55,25.10
2015,07,01,11,56,25.00
2015,07,01,11,57,25.00
2015,07,01,11,58,25.10
2015,07,01,11,59,25.20
2015,07,01,12,00,25.30
2015,07,01,12,01,25.30
2015,07,01,12,02,25.50
2015,07,01,12,03,25.60
2015,07,01,12,04,25.70
2015,07,01,12,05,25.80
2015,07,01,12,06,25.80
2015,07,01,12,07,25.80
2015,07,01,12,08,25.80
2015,07,01,12,09,25.70
2015,07,01,12,10,25.70
2015,07,01,12,11,25.70
2015,07,01,12,12,25.70
2015,07,01,12,13,25.70
2015,07,01,12,14,25.80
2015,07,01,12,15,25.80
2015,07,01,12,16,26.00
2015,07,01,12,17,26.10
2015,07,01,12,18,26.30
2015,07,01,12,19,26.40
2015,07,01,12,20,26.50
2015,07,01,12,21,26.60
2015,07,01,12,22,26.60
2015,07,01,12,23,26.60
2015,07,01,12,24,26.60
2015,07,01,12,25,26.60
2015,07,01,12,26,26.60
2015,07,01,12,27,26.70
2015,07,01,12,28,26.80
2015,07,01,12,29,26.90
2015,07,01,12,30,27.10
2015,07,01,12,31,27.20
2015,07,01,12,32,27.30
2015,07,01,12,33,27.40
2015,07,01,12,34,27.50
2015,07,01,12,35,27.60
2015,07,01,12,36,27.50
2015,07,01,12,37,27.40
2015,07,01,12,38,27.40
2015,07,01,12,39,27.30
2015,07,01,12,40,27.40
2015,07,01,12,41,27.50
2015,07,01,12,42,27.60
2015,07,01,12,43,27.70
2015,07,01,12,44,27.80
2015,07,01,12,45,27.80
2015,07,01,12,46,27.70
2015,07,01,12,47,27.60
2015,07,01,12,48,27.60
2015,07,01,12,49,27.60
2015,07,01,12,50,27.60
2015,07,01,12,51,27.60
2015,07,01,12,52,27.60
2015,07,01,12,53,27.60
2015,07,01,12,54,27.70
2015,07,01,12,55,27.70
2015,07,01,12,56,27.80
2015,07,01,12,57,27.90
2015,07,01,12,58,28.10
2015,07,01,12,59,28.20
2015,07,01,13,00,28.40
2015,07,01,13,01,28.60
2015,07,01,13,02,28.70
2015,07,01,13,03,28.80
2015,07,01,13,04,28.90
2015,07,01,13,05,29.00
2015,07,01,13,06,29.10
2015,07,01,13,07,29.20
2015,07,01,13,08,29.30
2015,07,01,13,09,29.40
2015,07,01,13,10,29.50
2015,07,01,13,11,29.60
2015,07,01,13,12,29.60
2015,07,01,13,13,29.60
2015,07,01,13,14,29.60
2015,07,01,13,15,29.50
2015,07,01,13,16,29.50
2015,07,01,13,17,29.50
2015,07,01,13,18,29.50
2015,07,01,13,19,29.60
2015,07,01,13,20,29.60
2015,07,01,13,21,29.60
2015,07,01,13,22,29.70
2015,07,01,13,23,29.70
2015,07,01,13,24,29.70
2015,07,01,13,25,29.70
2015,07,01,13,26,29.70
2015,07,01,13,27,29.80
2015,07,01,13,28,29.90
2015,07,01,13,29,30.00
2015,07,01,13,30,30.00
2015,07,01,13,31,30.10
2015,07,01,13,32,30.10
2015,07,01,13,33,30.10
2015,07,01,13,34,30.10
2015,07,01,13,35,30.20
2015,07,01,13,36,30.20
2015,07,01,13,37,30.30
2015,07,01,13,38,30.30
2015,07,01,13,39,30.40
2015,07,01,13,40,30.50
2015,07,01,13,41,30.60
2015,07,01,13,42,30.70
2015,07,01,13,43,30.70
2015,07,01,13,44,30.70
2015,07,01,13,45,30.70
2015,07,01,13,46,30.70
2015,07,01,13,47,30.70
2015,07,01,13,48,30.70
2015,07,01,13,49,30.70
2015,07,01,13,50,30.70
2015,07,01,13,51,30.70
2015,07,01,13,52,30.70
2015,07,01,13,53,30.70
2015,07,01,13,54,30.80
2015,07,01,13,55,30.80
2015,07,01,13,56,30.80
2015,07,01,13,57,30.80
2015,07,01,13,58,30.90
2015,07,01,13,59,31.10
2015,07,01,14,00,31.30
2015,07,01,14,01,31.40
2015,07,01,14,02,31.50
2015,07,01,14,03,31.60
2015,07,01,14,04,31.60
2015,07,01,14,05,31.60
2015,07,01,14,06,31.70
2015,07,01,14,07,31.70
2015,07,01,14,08,31.80
2015,07,01,14,09,31.70
2015,07,01,14,10,31.60
2015,07,01,14,11,31.50
2015,07,01,14,12,31.50
2015,07,01,14,13,31.50
2015,07,01,14,14,31.60
2015,07,01,14,15,31.60
2015,07,01,14,16,31.60
2015,07,01,14,17,31.70
2015,07,01,14,18,31.70
2015,07,01,14,19,31.70
2015,07,01,14,20,31.80
2015,07,01,14,21,31.80
2015,07,01,14,22,31.80
2015,07,01,14,23,31.90
2015,07,01,14,24,32.00
2015,07,01,14,25,32.00
2015,07,01,14,26,31.90
2015,07,01,14,27,31.80
2015,07,01,14,28,31.80
2015,07,01,14,29,31.80
2015,07,01,14,30,31.80
2015,07,01,14,31,31.80
2015,07,01,14,32,31.80
2015,07,01,14,33,31.80
2015,07,01,14,34,31.90
2015,07,01,14,35,32.00
2015,07,01,14,36,32.10
2015,07,01,14,37,32.20
2015,07,01,14,38,32.30
2015,07,01,14,39,32.40
2015,07,01,14,40,32.60
2015,07,01,14,41,32.80
2015,07,01,14,42,32.90
2015,07,01,14,43,33.00
2015,07,01,14,44,33.10
2015,07,01,14,45,33.10
2015,07,01,14,46,33.10
2015,07,01,14,47,33.00
2015,07,01,14,48,32.90
2015,07,01,14,49,32.90
2015,07,01,14,50,32.90
2015,07,01,14,51,32.90
2015,07,01,14,52,32.80
2015,07,01,14,53,32.90
2015,07,01,14,54,32.90
2015,07,01,14,55,32.90
2015,07,01,14,56,33.00
2015,07,01,14,57,33.00
2015,07,01,14,58,33.10
2015,07,01,14,59,33.10
2015,07,01,15,00,33.10
2015,07,01,15,01,33.20
2015,07,01,15,02,33.30
2015,07,01,15,03,33.30
2015,07,01,15,04,33.30
2015,07,01,15,05,33.20
2015,07,01,15,06,33.20
2015,07,01,15,07,33.20
2015,07,01,15,08,33.10
2015,07,01,15,09,33.10
2015,07,01,15,10,33.10
2015,07,01,15,11,33.10
2015,07,01,15,12,33.20
2015,07,01,15,13,33.20
2015,07,01,15,14,33.40
2015,07,01,15,15,33.50
2015,07,01,15,16,33.60
2015,07,01,15,17,33.70
2015,07,01,15,18,33.70
2015,07,01,15,19,33.80
2015,07,01,15,20,33.70
2015,07,01,15,21,33.80
2015,07,01,15,22,33.80
2015,07,01,15,23,34.00
2015,07,01,15,24,34.00
2015,07,01,15,25,34.10
2015,07,01,15,26,34.00
2015,07,01,15,27,33.90
2015,07,01,15,28,33.90
2015,07,01,15,29,33.80
2015,07,01,15,30,33.90
2015,07,01,15,31,33.90
2015,07,01,15,32,34.00
2015,07,01,15,33,34.10
2015,07,01,15,34,34.20
2015,07,01,15,35,34.20
2015,07,01,15,36,34.10
2015,07,01,15,37,34.00
2015,07,01,15,38,33.90
2015,07,01,15,39,33.80
2015,07,01,15,40,33.70
2015,07,01,15,41,33.70
2015,07,01,15,42,33.70
2015,07,01,15,43,33.80
2015,07,01,15,44,33.90
2015,07,01,15,45,33.80
2015,07,01,15,46,33.70
2015,07,01,15,47,33.60
2015,07,01,15,48,33.60
2015,07,01,15,49,33.60
2015,07,01,15,50,33.60
2015,07,01,15,51,33.60
2015,07,01,15,52,33.60
2015,07,01,15,53,33.60
2015,07,01,15,54,33.60
2015,07,01,15,55,33.70
2015,07,01,15,56,33.80
2015,07,01,15,57,33.90
2015,07,01,15,58,34.10
2015,07,01,15,59,34.20
2015,07,01,16,00,34.30
2015,07,01,16,01,34.10
2015,07,01,16,02,33.90
2015,07,01,16,03,33.90
2015,07,01,16,04,33.90
2015,07,01,16,05,33.80
2015,07,01,16,06,33.70
2015,07,01,16,07,33.60
2015,07,01,16,08,33.50
2015,07,01,16,09,33.40
2015,07,01,16,10,33.40
2015,07,01,16,11,33.50
2015,07,01,16,12,33.60
2015,07,01,16,13,33.60
2015,07,01,16,14,33.60
2015,07,01,16,15,33.60
2015,07,01,16,16,33.50
2015,07,01,16,17,33.40
2015,07,01,16,18,33.40
2015,07,01,16,19,33.30
2015,07,01,16,20,33.30
2015,07,01,16,21,33.20
2015,07,01,16,22,33.30
2015,07,01,16,23,33.30
2015,07,01,16,24,33.30
2015,07,01,16,25,33.20
2015,07,01,16,26,33.20
2015,07,01,16,27,33.20
2015,07,01,16,28,33.10
2015,07,01,16,29,33.10
2015,07,01,16,30,33.10
2015,07,01,16,31,33.10
2015,07,01,16,32,33.10
2015,07,01,16,33,33.10
2015,07,01,16,34,33.00
2015,07,01,16,35,33.00
2015,07,01,16,36,33.00
2015,07,01,16,37,33.10
2015,07,01,16,38,33.00
2015,07,01,16,39,33.00
2015,07,01,16,40,32.90
2015,07,01,16,41,32.90
2015,07,01,16,42,32.90
2015,07,01,16,43,32.90
2015,07,01,16,44,33.00
2015,07,01,16,45,33.00
2015,07,01,16,46,33.00
2015,07,01,16,47,33.00
2015,07,01,16,48,32.90
2015,07,01,16,49,32.90
2015,07,01,16,50,32.80
2015,07,01,16,51,32.80
2015,07,01,16,52,32.70
2015,07,01,16,53,32.70
2015,07,01,16,54,32.70
2015,07,01,16,55,32.70
2015,07,01,16,56,32.80
2015,07,01,16,57,32.80
2015,07,01,16,58,32.90
2015,07,01,16,59,32.90
2015,07,01,17,00,32.90
2015,07,01,17,01,32.80
2015,07,01,17,02,32.70
2015,07,01,17,03,32.60
2015,07,01,17,04,32.60
2015,07,01,17,05,32.60
2015,07,01,17,06,32.60
2015,07,01,17,07,32.60
2015,07,01,17,08,32.50
2015,07,01,17,09,32.50
2015,07,01,17,10,32.50
2015,07,01,17,11,32.60
2015,07,01,17,12,32.60
2015,07,01,17,13,32.70
2015,07,01,17,14,32.70
2015,07,01,17,15,32.70
2015,07,01,17,16,32.60
2015,07,01,17,17,32.60
2015,07,01,17,18,32.50
2015,07,01,17,19,32.50